Flag for Spain Weather past 2 weeks in Málaga, Spain

Now
79 °F

Scattered clouds.


Feels Like: 81 °F
Forecast: 65 / 87 °F
Wind: 3 mph from East

Location: Malaga / Aeropuerto

Current Time: Jul 30, 2014 at 11:44:14 AM

Latest Report: Jul 30, 2014 at 11:00 AM


Visibility: N/A

Pressure: 29.95 "Hg

Humidity: 70%

Dew point: 68 °F

Location of MálagaLocation

Historic Weather in Málaga — Graph

°F

Málaga temperature yesterday

Maximum temperature yesterday: 90 °F (at 12:30 PM)
Minimum temperature yesterday: 75 °F (at 9:00 PM)
Average temperature yesterday: 80 °F

Past Weeks' High & Low Weather Summary

 TemperatureHumidityPressure
High95 °F (Jul 24, 1:00 PM)94% (Jul 23, 2:30 AM)30.07 "Hg (Jul 23, 2:30 AM)
Low64 °F (Jul 22, 7:30 AM)17% (Jul 20, 7:00 PM)29.74 "Hg (Jul 24, 6:30 PM)
Average77 °F60%29.95 "Hg
* Reported Jul 15 10:00 AM — Jul 30 10:30 AM, Málaga, Weather by CustomWeather, © 2014

Note: Actual official high and low records may vary slightly from our data, if they occured in-between our weather recording intervals... More about our weather records

Advertising

Málaga weather history for previous 24 hours

 ConditionsComfort  
Time TempWeatherWind HumidityBarometerVisibility
10:30 AM
Jul 30
79 °FScattered clouds.5 mph70%29.95 "HgN/A
10:00 AM77 °FBroken clouds.3 mph79%29.95 "Hg5 mi
9:30 AM77 °FBroken clouds.3 mph83%29.95 "Hg4 mi
9:00 AM75 °FBroken clouds.3 mph89%29.95 "Hg4 mi
8:30 AM73 °FBroken clouds.1 mph94%29.95 "Hg4 mi
8:00 AM73 °FPassing clouds.2 mph94%29.92 "Hg4 mi
7:30 AM73 °FPassing clouds.2 mph94%29.92 "Hg4 mi
7:00 AM73 °FPassing clouds.5 mph89%29.92 "HgN/A
6:30 AM73 °FPassing clouds.3 mph94%29.92 "HgN/A
6:00 AM73 °FPassing clouds.2 mph89%29.92 "HgN/A
5:30 AM73 °FPassing clouds.2 mph89%29.92 "HgN/A
5:00 AM73 °FPassing clouds.2 mph89%29.92 "HgN/A
4:30 AM73 °FPassing clouds.1 mph83%29.92 "HgN/A
4:00 AM73 °FPassing clouds.1 mph83%29.92 "HgN/A
3:30 AM73 °FPassing clouds.2 mph89%29.92 "HgN/A
3:00 AM73 °FPassing clouds.2 mph89%29.95 "HgN/A
2:30 AM73 °FPassing clouds.2 mph89%29.95 "HgN/A
2:00 AM73 °FPassing clouds.3 mph94%29.95 "HgN/A
1:30 AM73 °FPassing clouds.6 mph94%29.95 "HgN/A
1:00 AM75 °FPassing clouds.6 mph89%29.95 "HgN/A
12:30 AM75 °FPassing clouds.5 mph89%29.95 "HgN/A
12:00 AM75 °FPassing clouds.5 mph89%29.95 "HgN/A
11:30 PM
Jul 29
75 °FPassing clouds.3 mph89%29.92 "HgN/A
11:00 PM75 °FPassing clouds.3 mph89%29.92 "HgN/A
10:30 PM75 °FPassing clouds.3 mph83%29.92 "HgN/A
10:00 PM75 °FPassing clouds.3 mph83%29.89 "HgN/A
9:30 PM75 °FPassing clouds.3 mph78%29.89 "HgN/A
9:00 PM75 °FPassing clouds.6 mph78%29.89 "HgN/A
8:30 PM77 °FClear.9 mph74%29.89 "Hg4 mi
8:00 PM77 °FClear.9 mph74%29.89 "Hg4 mi
7:30 PM79 °FClear.10 mph70%29.86 "Hg4 mi
7:00 PM79 °FClear.10 mph70%29.86 "Hg5 mi
6:30 PM79 °FPassing clouds.12 mph61%29.86 "Hg6 mi
6:00 PM79 °FPassing clouds.10 mph65%29.86 "Hg6 mi
5:30 PM81 °FPassing clouds.8 mph62%29.86 "Hg6 mi
5:00 PM79 °FPassing clouds.9 mph65%29.86 "HgN/A
4:30 PM81 °FPassing clouds.8 mph62%29.89 "HgN/A
4:00 PM81 °FPassing clouds.9 mph62%29.89 "HgN/A
3:30 PM81 °FPassing clouds.9 mph62%29.89 "HgN/A
3:00 PM79 °FPassing clouds.8 mph61%29.89 "HgN/A
2:30 PM77 °FPassing clouds.9 mph57%29.89 "HgN/A
2:00 PM77 °FPassing clouds.9 mph57%29.89 "HgN/A
1:30 PM77 °FPassing clouds.14 mph57%29.89 "HgN/A
1:00 PM90 °FSunny.5 mph33%29.89 "Hg10 mi
12:30 PM90 °FPassing clouds.20 mph29%29.86 "HgN/A
12:00 PM86 °FPassing clouds.21 mph35%29.86 "HgN/A
11:30 AM86 °FSunny.20 mph35%29.86 "Hg10 mi
11:00 AM84 °FPassing clouds.20 mph37%29.86 "HgN/A
Weather by CustomWeather, © 2014

See weather overviewHow to use our weather pages